Location: Gollag?dem
(17.0207°N, 80.7261°E)
Time: 11:50:45
(UTC+00:00)

Cosmos 1544 Rocket - Pass Details

Date: 03 August 2024
Orbit: 601 x 626 km, 82.5° (Epoch: 08 September)

Event Time Altitude Azimuth Distance (km) Brightness Sun altitude
Rises 14:33:37 0° 347° (NNW) 2,846 7.5 -19.6°
Reaches altitude 10° 14:35:52 10° 342° (NNW) 1,945 6.7 -20.1°
Maximum altitude 14:40:01 50° 267° (W) 771 4.3 -21.0°
Enters shadow 14:43:32 14° 194° (SSW) 1,695 5.7 -21.8°
